Regional Weather Roundup
Issued by NWS Portland, ME

Home | Current Version | Previous Version | Text Only | Print | Product List | Glossary On
Versions: 1 2 3 4 5 6 7 8 9 10 11 12 13 14 15 16 17 18 19 20 21 22 23 24 25 26 27 28 29 30 31 32 33 34 35 36 37 38 39 40 41 42 43 44 45 46 47 48 49 50
000
ASUS41 KGYX 271910
RWRGYX
WEATHER ROUNDUP FOR MAINE AND NEW HAMPSHIRE
NATIONAL WEATHER SERVICE GRAY ME
300 PM EDT WED JUL 27 2016

MEZ002-005-006-010-012-015-018-020-021-024-026-027-029-272000-
MAINE

CITY           SKY/WX    TMP DP  RH WIND       PRES   REMARKS
PORTLAND       MOSUNNY   83  62  49 S13       29.89F
SANFORD          N/A     85  65  51 VRB6      29.88F
BAR HARBOR     SUNNY     83  66  56 SW12      29.86F
WISCASSET      PTSUNNY   85  63  47 S9        29.88F
FRYEBURG       NOT AVBL
LEWISTONAUBURN MOSUNNY   86  61  42 W9        29.88F
AUGUSTA        SUNNY     86  58  38 S7        29.87F
WATERVILLE     SUNNY     87  58  37 VRB3      29.85F
BANGOR         MOSUNNY   92  55  28 NW6       29.85F HX  90
GREENVILLE       N/A     81  50  33 CALM      29.88F
MILLINOCKET    SUNNY     87  55  33 VRB3      29.85F
HOULTON        SUNNY     84  60  44 VRB7      29.82F
PRESQUE ISLE   MOSUNNY   83  62  49 CALM      29.83F
FRENCHVILLE    MOSUNNY   79  60  52 SW10      29.83F
CARIBOU        SUNNY     84  63  49 VRB6      29.82F
$$

NHZ002-005-008-009-011-012-014-272000-
NEW HAMPSHIRE

CITY           SKY/WX    TMP DP  RH WIND       PRES   REMARKS
PORTSMOUTH     MOSUNNY   84  62  48 SE13      29.87F
ROCHESTER      SUNNY     89  60  37 N6        29.88F
NASHUA         MOSUNNY   91  57  31 VRB3      29.88F
MANCHESTER     MOSUNNY   91  56  30 W7        29.87F
CONCORD        SUNNY     92  55  28 VRB3      29.88F HX  90
LACONIA        SUNNY     88  57  34 W9        29.89F
PLYMOUTH       FAIR      88  56  33 CALM      29.89F
BERLIN         SUNNY     86  53  32 VRB7      29.91F
WHITEFIELD     SUNNY     84  57  39 VRB5      29.92F
JAFFREY        MOSUNNY   88  53  30 W7        29.93F
KEENE          SUNNY     89  58  34 VRB5      29.89F
LEBANON        PTSUNNY   88  57  34 CALM      29.89F
MT WASHINGTON  MOSUNNY   61  46  59 W12G17      N/A
$$

VTZ005-007-008-272000-
VERMONT

CITY           SKY/WX    TMP DP  RH WIND       PRES   REMARKS
ST JOHNSBURY     N/A     86  59  39 MISG      29.88F
MONTPELIER     FAIR      83  56  39 W6        29.96F
BURLINGTON     FAIR      89  59  36 S6        29.87F
$$

MAZ007-012-024-CTZ003-RIZ002-NYZ038-NYZ072-272000-
SOUTHERN NEW ENGLAND AND NY

CITY           SKY/WX    TMP DP  RH WIND       PRES   REMARKS
BOSTON         MOSUNNY   83  62  49 E15       29.88F
WORCESTER      PTSUNNY   86  53  32 MISG      29.93F
NANTUCKET      SUNNY     79  65  62 S8        29.92F
PROVIDENCE     MOSUNNY   87  63  44 S16       29.89F
HARTFORD       PTSUNNY   91  55  29 W8        29.90F
ALBANY         MOSUNNY   89  56  32 W7G17     29.92F
NEW YORK CITY  MOSUNNY   93  59  31 W10       29.91S HX  92
$$

ANZ081-ANZ082-ANZ150-NHZ014-MEZ023>029-272000-
COASTAL MARINE OBSERVATIONS

STATION/POSITION TIME  TEMP    WIND        PRES    WAVE
                       AIR SEA DIR/SP/G            HT/PER
                 (UTC) (F)     (DEG/KT/KT) (MB)    (FT/S)
MOUNT DESERT ROC 1900   67     210/ 14/ 14 1012.1F
MATINICUS ROCK   1800   71     230/ 12/ 12 1012.3F
ISLE OF SHOALS   1800   76     130/ 14/ 14 1012.2F
JEFFREYS LEDGE   1808      73                N/A     1/ 8
CASHES LEDGE BUO 1850   74 74  230/  2/  2 1012.8F   2/ 7
GEORGES BANK BUO 1850   70 69              1011.9R   3/ 8
$$

.............KEY..............
   WCI - WIND CHILL
   TC  - TEMPERATURE IN CELSIUS
   VSB - VISIBILITY IN MILES
   HX  - HEAT INDEX
   FAIR- INDICATES FEW OR NO CLOUDS BELOW 12,000 FT, WITH NO
         SIGNIFICANT WEATHER AND/OR OBSTRUCTIONS TO VISIBILITY.





USA.gov is the U.S. government's official web portal to all federal, state and local government web resources and services.